Tacoma, WA
on Wednesday, December 5, 2012

Wednesday
Previous Day Next Day
Daily Summary
 ActualAverage (KSEA)Record (KSEA)
Temperature
Mean Temperature °F 41°F  
Max Temperature 47°F 47°F 55°F (1954)
Min Temperature 34°F 36°F 23°F (1956)
Degree Days
Heating Degree Days 24 24  
Month to date heating degree days 116  
Since 1 July heating degree days 1299  
Cooling Degree Days 0 0  
Month to date cooling degree days 0  
Year to date cooling degree days 189  
Moisture
Dew Point 39°F   
Average Humidity 91    
Maximum Humidity 99    
Minimum Humidity 69    
Precipitation
Precipitation 0.11 in 0.19 in 1.67 in (1970)
Month to date precipitation 0.98  
Year to date precipitation 33.12  
Snow
Snow 0.00 in in 2.60 in (1956)
Month to date snowfall  
Since 1 July snowfall  
Snow Depth in   
Wind
Wind Speed 10 mph   
Max Wind Speed 20 mph   
Max Gust Speed 29 mph   
Visibility 9 miles   
Events Rain   

Key: T is trace of precipitation, MM is missing value
Source: NWS Daily Summary
Time(PST)TemperatureDew PointHumidity Pressure Visibility Wind DirectionWind SpeedGust SpeedPrecipitationEvents Conditions
12:03 AM 44.6°F 41.0°F 87% 29.89 in 8.0 miles WSW 17.3 mph 25.3 mph N/A Rain Light Rain
12:12 AM 44.6°F 42.8°F 93% 29.89 in 6.0 miles WSW 19.6 mph 28.8 mph N/A Rain Light Rain
12:22 AM 44.6°F 42.8°F 93% 29.90 in 7.0 miles SSW 12.7 mph 28.8 mph N/A Rain Light Rain
12:27 AM 42.8°F 41.0°F 93% 29.90 in 10.0 miles SSW 11.5 mph - N/A Rain Light Rain
12:29 AM 42.8°F 41.0°F 93% 29.90 in 10.0 miles SSW 11.5 mph - N/A   Scattered Clouds
12:58 AM 43.0°F 41.0°F 93% 29.92 in 10.0 miles South 13.8 mph - 0.04 in   Clear
1:21 AM 42.8°F 41.0°F 93% 29.94 in 10.0 miles SW 9.2 mph - N/A Rain Light Rain
1:30 AM 42.8°F 41.0°F 93% 29.95 in 10.0 miles South 8.1 mph - N/A   Mostly Cloudy
1:36 AM 42.8°F 41.0°F 93% 29.95 in 10.0 miles SSW 8.1 mph - N/A Rain Light Rain
1:41 AM 42.8°F 41.0°F 93% 29.96 in 10.0 miles SSW 5.8 mph - N/A   Overcast
1:47 AM 42.8°F 41.0°F 93% 29.96 in 10.0 miles South 9.2 mph - N/A   Mostly Cloudy
1:52 AM 42.8°F 41.0°F 93% 29.96 in 10.0 miles South 9.2 mph - N/A   Mostly Cloudy
1:58 AM 41.7°F 39.9°F 93% 29.97 in 10.0 miles South 9.2 mph - 0.00 in   Scattered Clouds
2:27 AM 42.8°F 41.0°F 93% 30.00 in 10.0 miles West 6.9 mph - N/A Rain Light Rain
2:48 AM 42.8°F 39.2°F 87% 30.00 in 10.0 miles South 10.4 mph - N/A   Overcast
2:58 AM 42.1°F 39.7°F 91% 30.01 in 10.0 miles South 12.7 mph 19.6 mph 0.00 in   Mostly Cloudy
3:58 AM 39.0°F 37.9°F 96% 30.05 in 10.0 miles South 10.4 mph - N/A   Partly Cloudy
4:23 AM 41.0°F 39.2°F 93% 30.05 in 10.0 miles South 8.1 mph - N/A Rain Light Rain
4:33 AM 41.0°F 39.2°F 93% 30.07 in 10.0 miles WNW 6.9 mph - N/A Rain Light Rain
4:38 AM 41.0°F 39.2°F 93% 30.07 in 5.0 miles Variable 4.6 mph - N/A Rain Rain
4:43 AM 41.0°F 39.2°F 93% 30.07 in 4.0 miles SW 9.2 mph - N/A Rain Rain
4:48 AM 41.0°F 39.2°F 93% 30.07 in 6.0 miles SSW 6.9 mph - N/A Rain Light Rain
4:58 AM 41.0°F 39.0°F 93% 30.10 in 9.0 miles South 8.1 mph - 0.04 in Rain Light Rain
5:03 AM 41.0°F 39.2°F 93% 30.08 in 10.0 miles South 9.2 mph - N/A   Light Drizzle
5:04 AM 41.0°F 39.2°F 93% 30.08 in 10.0 miles South 8.1 mph - N/A   Overcast
6:33 AM 39.2°F 37.4°F 93% 30.11 in 10.0 miles South 10.4 mph - N/A   Scattered Clouds
6:58 AM 39.6°F 37.4°F 92% 30.14 in 10.0 miles South 6.9 mph - 0.00 in   Clear
7:58 AM 34.9°F 34.7°F 99% 30.16 in 10.0 miles South 4.6 mph - N/A   Clear
8:58 AM 37.8°F 37.6°F 99% 30.19 in 10.0 miles SE 5.8 mph - N/A   Clear
9:58 AM 41.2°F 38.3°F 89% 30.21 in 10.0 miles South 8.1 mph - N/A   Mostly Cloudy
10:29 AM 41.0°F 39.2°F 93% 30.21 in 10.0 miles South 10.4 mph - N/A Rain Light Rain
10:30 AM 41.0°F 39.2°F 93% 30.21 in 10.0 miles South 10.4 mph - N/A Rain Light Rain
10:43 AM 42.8°F 39.2°F 87% 30.21 in 10.0 miles SSE 6.9 mph - N/A   Overcast
10:58 AM 43.0°F 39.6°F 88% 30.23 in 10.0 miles South 8.1 mph - 0.00 in   Overcast
11:58 AM 46.4°F 39.9°F 78% 30.22 in 10.0 miles South 10.4 mph - N/A   Partly Cloudy
12:58 PM 47.5°F 39.4°F 73% 30.20 in 10.0 miles SSW 9.2 mph - N/A   Clear
1:58 PM 47.7°F 38.3°F 70% 30.20 in 10.0 miles South 8.1 mph - N/A   Clear
2:58 PM 47.1°F 37.4°F 69% 30.20 in 10.0 miles SSW 8.1 mph - N/A   Clear
3:57 PM 44.6°F 37.4°F 76% 30.21 in 10.0 miles WNW 12.7 mph 18.4 mph N/A Rain Light Rain
3:58 PM 44.6°F 38.3°F 79% 30.23 in 10.0 miles WNW 12.7 mph 18.4 mph N/A Rain Light Rain
4:03 PM 42.8°F 37.4°F 81% 30.21 in 10.0 miles West 6.9 mph 18.4 mph N/A Rain Light Rain
4:05 PM 42.8°F 39.2°F 87% 30.21 in 6.0 miles West 3.5 mph - N/A Rain Light Rain
4:10 PM 41.0°F 39.2°F 93% 30.21 in 5.0 miles NW 4.6 mph - N/A Rain Light Rain
4:17 PM 41.0°F 39.2°F 93% 30.21 in 10.0 miles NW 5.8 mph - N/A   Overcast
4:27 PM 41.0°F 39.2°F 93% 30.21 in 10.0 miles West 3.5 mph - N/A   Overcast
4:32 PM 41.0°F 39.2°F 93% 30.21 in 10.0 miles West 5.8 mph - N/A Rain Light Rain
4:47 PM 42.8°F 39.2°F 87% 30.21 in 9.0 miles SSW 8.1 mph - N/A Rain Light Rain
4:58 PM 42.1°F 39.7°F 91% 30.22 in 8.0 miles SSE 11.5 mph - 0.03 in   Overcast
5:03 PM 41.0°F 39.2°F 93% 30.20 in 10.0 miles SE 12.7 mph - N/A Rain Light Rain
5:15 PM 41.0°F 37.4°F 87% 30.20 in 10.0 miles SSE 8.1 mph - N/A   Mostly Cloudy
5:58 PM 39.2°F 38.3°F 97% 30.22 in 10.0 miles South 8.1 mph - 0.00 in   Clear
6:58 PM 39.0°F 38.7°F 99% 30.23 in 10.0 miles ESE 3.5 mph - N/A   Mostly Cloudy
7:58 PM 40.5°F 39.4°F 96% 30.23 in 10.0 miles SSE 4.6 mph - N/A   Overcast
8:58 PM 39.4°F 38.7°F 97% 30.23 in 10.0 miles SSE 3.5 mph - N/A   Mostly Cloudy
9:58 PM 39.0°F 38.1°F 97% 30.21 in 10.0 miles South 5.8 mph - N/A   Overcast
10:58 PM 40.3°F 39.0°F 95% 30.21 in 10.0 miles South 4.6 mph - N/A   Overcast
11:58 PM 39.9°F 39.0°F 97% 30.21 in 10.0 miles SSE 5.8 mph - N/A   Overcast
Moon Phase
Dec. 05 Dec. 06 Dec. 13 Dec. 20 Dec. 28
Sunrise:07:40 AM (PST) Moon Rise:11:36 PM (PST)12/5
Sunset:04:20 PM (PST) Moon Set:11:48 AM (PST)12/5

Copyright © 2014 The Weather Underground, Inc.